Location: Bishop�s Knoyle
(51.0728°N, 2.1714°W)
Time: 14:29:53
(UTC+00:00)

NOSS 3-4 (C) - Pass Details

Date: 25 January 2021
Orbit: 878 x 1335 km, 63.4° (Epoch: 16 February)

Event Time Altitude Azimuth Distance (km) Brightness Sun altitude
Rises 21:35:30 0° 313° (NW) 3,728 7.3 -44.1°
Reaches altitude 10° 21:38:02 10° 317° (NW) 2,835 6.5 -44.5°
Enters shadow 21:40:17 23° 324° (NW) 2,092 5.6 -44.8°
